Location: *
(46.3500°N, 10.9000°E)
Time: 21:04:11
(UTC+00:00)

A-11 Canister half - Pass Details

Date: 23 April 2021
Orbit: 1526 x 1682 km, 47.3° (Epoch: 13 May)

Event Time Altitude Azimuth Distance (km) Brightness Sun altitude
Rises 12:12:23 0° 201° (SSW) 4,807 12.2 54.2°
Reaches altitude 10° 12:15:53 10° 192° (SSW) 3,847 11.9 54.0°
Maximum altitude 12:24:12 32° 134° (SE) 2,548 10.7 53.3°
Drops below altitude 10° 12:32:42 10° 76° (ENE) 3,940 11.0 52.6°
Sets 12:36:18 0° 67° (ENE) 4,938 11.3 52.2°
